Regional Weather Roundup
Issued by NWS

Home | Current Version | Previous Version | Text Only | Print | Product List | Glossary Off
Versions: 1 2 3 4 5 6 7 8 9 10 11 12 13 14 15 16 17 18 19 20 21 22 23 24 25 26 27 28 29 30 31 32 33 34 35 36 37 38 39 40 41 42 43 44 45 46 47 48 49 50

000
ASUS43 KDMX 242006
RWRIA

WEATHER ROUNDUP FOR IOWA
NATIONAL WEATHER SERVICE DES MOINES IA
300 PM CDT MON JUL 24 2017

NOTE: "FAIR" INDICATES FEW OR NO CLOUDS BELOW 12,000 FEET WITH NO
SIGNIFICANT WEATHER AND/OR OBSTRUCTIONS TO VISIBILITY.

* - THESE STATIONS ARE NOT NWS STATIONS...THUS NOT UNDER NWS
QUALITY CONTROL.  THEY ALSO DO NOT REPORT WEATHER SUCH
AS PRECIPITATION OR FOG.

IAZ001>003-012>014-020>022-031>034-043>046-242100-
   NORTHWEST IOWA

CITY           SKY/WX    TMP DP  RH WIND       PRES   REMARKS
CARROLL *      MOSUNNY   79  66  65 VRB7      30.01F HX  81
CHEROKEE *     SUNNY     81  61  51 SE7       29.99F HX  82
DENISON *      SUNNY     81  64  57 VRB6G14   30.02S HX  82
ORANGE CITY *  SUNNY     81  63  54 SE10      29.99S HX  82
SHELDON *      SUNNY     81  63  54 SE13      29.98S HX  82
SIOUX CITY     SUNNY     83  64  52 S12G20    29.97F HX  84
SPENCER        MOSUNNY   82  62  50 S12       30.01F HX  83
STORM LAKE *   SUNNY     79  63  57 SE7G13    30.02F HX  80
$$

IAZ055>058-069>071-079>083-090>094-242100-
   SOUTHWEST IOWA

CITY           SKY/WX    TMP DP  RH WIND       PRES   REMARKS
ATLANTIC *     SUNNY     82  61  47 VRB5      30.00S HX  83
AUDUBON *      SUNNY     81  66  61 SE6       30.02F HX  83
CLARINDA *     SUNNY     82  66  57 VRB3      30.02S HX  85
COUNCIL BLFS * SUNNY     82  66  57 SE10      30.00S HX  85
CRESTON *      SUNNY     84  61  45 E7        30.02F HX  84
HARLAN  *      SUNNY     82  63  51 SE7       30.03F HX  83
LAMONI         SUNNY     82  62  50 SE6       30.01F HX  83
RED OAK *      SUNNY     82  63  51 S6        30.00F HX  83
SHENANDOAH *   SUNNY     82  66  57 E6        30.00F HX  85
$$

IAZ047>049-059>061-072>074-084-242100-
   CENTRAL IOWA

CITY           SKY/WX    TMP DP  RH WIND       PRES   REMARKS
AMES           MOSUNNY   79  64  60 MISG      30.02S HX  81
ANKENY *       SUNNY     79  61  53 CALM      30.02F HX  80
BOONE *        MOSUNNY   79  63  57 SE7       30.02S HX  80
CHARITON *     SUNNY     84  59  42 E8        30.01S HX  84
DES MOINES     MOSUNNY   84  60  44 VRB7      30.00F HX  84
GRINNELL*      MOSUNNY   76  62  61 CALM      30.04F
KNOXVILLE *    MOSUNNY   81  57  44 CALM      30.00F HX  81
MARSHALLTOWN   PTSUNNY   77  63  61 SE8       30.02F
NEWTON *       SUNNY     77  63  61 E8        30.03S
PELLA *        SUNNY     82  60  48 CALM      30.03S HX  82
$$

IAZ004>006-015-016-023>025-035-036-242100-
   NORTH CENTRAL IOWA

CITY           SKY/WX    TMP DP  RH WIND       PRES   REMARKS
ALGONA *       MOSUNNY   77  63  61 SE9       30.03S
CLARION *      MOSUNNY   77  66  69 SE10      30.04S
ESTHERVILLE    MOSUNNY   75  62  64 SE10      30.02F
FORT DODGE *   MOSUNNY   79  63  57 E12       30.03F HX  80
MASON CITY     CLOUDY    74  61  63 E7        30.06S
FOREST CITY *  PTSUNNY   75  61  60 E7        30.05S
WEBSTER CITY * SUNNY     79  63  57 E9        30.01S HX  80
IOWA FALLS *     N/A     78  63  60 SE5       30.05S
$$

IAZ007>011-017>019-026>030-037>042-050>054-066-242100-
   NORTHEAST IOWA

CITY           SKY/WX    TMP DP  RH WIND       PRES   REMARKS
CEDAR RAPIDS   PTSUNNY   77  65  66 SE7       30.03F
CHARLES CITY * PTSUNNY   73  63  68 SE5       30.06S
DECORAH *      CLOUDY    70  61  73 SE6       30.06F
DUBUQUE        PTSUNNY   72  59  63 VRB3      30.07F
MONTICELLO *   PTSUNNY   73  63  68 E7        30.05F
OELWEIN *        N/A    N/A N/A N/A MISG        N/A
WATERLOO       CLOUDY    75  62  64 E7        30.03S
$$

IAZ064-065-067-068-078-242100-
   EAST CENTRAL IOWA

CITY           SKY/WX    TMP DP  RH WIND       PRES   REMARKS
DAVENPORT      CLOUDY    73  63  70 NE9       30.07S
IOWA CITY      CLOUDY    77  63  61 E8        30.04F
MT. PLEASANT * MOSUNNY   81  63  55 E6        30.02S HX  82
MUSCATINE *    PTSUNNY   77  64  65 NE13      30.03F
QUAD CITIES    CLOUDY    74  64  71 E7        30.05R
$$

IAZ062-063-075>077-085>089-095>099-242100-
   SOUTHEAST IOWA

CITY           SKY/WX    TMP DP  RH WIND       PRES   REMARKS
BURLINGTON     SUNNY     79  68  69 NE12      30.02S HX  81
FAIRFIELD *    PTSUNNY   81  61  50 NE7       30.01S HX  81
FORT MADISON * MOSUNNY   79  68  69 E9        30.02S HX  81
KEOKUK *       SUNNY     82  64  54 E9        30.00S HX  84
OSKALOOSA *      N/A     82  61  47 SE5       30.02S HX  83
CENTERVILLE *    N/A     84  57  39 CALM      30.02F HX  83
OTTUMWA        SUNNY     83  58  42 E5        30.01F HX  83
WASHINGTON *   MOSUNNY   77  66  69 E9        30.04S
$$

ABBREVIATIONS USED IN REMARKS
   TC - TEMPERATURES IN CELSIUS
  WCI - WIND CHILL INDEX
   HX - HEAT INDEX
  VSB - VISIBILITY
$$





USA.gov is the U.S. government's official web portal to all federal, state and local government web resources and services.